Regional Weather Roundup
Issued by NWS

Home | Current Version | Previous Version | Graphics & Text | Print | Product List | Glossary On
Versions: 1 2 3 4 5 6 7 8 9 10 11 12 13 14 15 16 17 18 19 20 21 22 23 24 25 26 27 28 29 30 31 32 33 34 35 36 37 38 39 40 41 42 43 44 45 46 47 48 49 50
822
ASUS43 KMKX 261321
RWRWI

WISCONSIN REGIONAL WEATHER ROUNDUP
NATIONAL WEATHER SERVICE MILWAUKEE/SULLIVAN WI
800 AM CDT TUE JUL 26 2016

NOTE: "FAIR" INDICATES FEW OR NO CLOUDS BELOW 12,000 FEET WITH NO
SIGNIFICANT WEATHER AND/OR OBSTRUCTIONS TO VISIBILITY.

WIZ001-002-006>008-014>016-023>028-261400-
NORTHWEST WISCONSIN

CITY           SKY/WX    TMP DP  RH WIND       PRES   REMARKS
SUPERIOR ARPT  CLOUDY    70  66  88 CALM      29.98S
ASHLAND        CLOUDY    73  67  81 SW7       30.01F
HAYWARD        CLOUDY    72  65  78 S7        30.05S
SIREN          MOSUNNY   72  64  78 S5        30.04R
CUMBERLAND     CLOUDY    66  64  94 CALM      30.07R
RICE LAKE      PTSUNNY   67  66  96 CALM      30.07S
CHETEK         MOSUNNY   70  65  85 CALM      30.06F
LADYSMITH      PTSUNNY   69  66  90 S5        30.08F
EAU CLAIRE     MOSUNNY   71  66  84 SW3       30.06S
MENOMONIE      MOSUNNY   70  68  92 CALM      30.07S
NEW RICHMOND   SUNNY     72  66  81 SW7       30.06S
OSCEOLA        SUNNY     74  71  91 SW6       30.07S
$$

WIZ003>005-009-010-017-018-261400-
NORTH CENTRAL WISCONSIN

CITY           SKY/WX    TMP DP  RH WIND       PRES   REMARKS
MANITOWISH WTR SUNNY     67  67 100 SW6       30.07S
ARBOR VITAE    SUNNY     72  67  85 W3        30.06F
WOODRUFF       SUNNY     72  67  85 W3        30.06F
RHINELANDER    SUNNY     71  63  75 W7        30.09S
EAGLE RIVER    SUNNY     67  67  98 SW7       30.06F
LAND O LAKES   SUNNY     68  66  92 CALM      30.07F
PHILLIPS       SUNNY     68  65  90 S7        30.06F
TOMAHAWK       SUNNY     68  63  84 CALM      30.08F
MEDFORD        SUNNY     69  67  92 CALM      30.08F
MERRILL        SUNNY     68  64  87 CALM      30.09S
$$

WIZ029-030-035-036-043>047-261400-
CENTRAL WISCONSIN

CITY           SKY/WX    TMP DP  RH WIND       PRES   REMARKS
WAUSAU         SUNNY     71  63  75 NW3       30.07S
MOSINEE        SUNNY     72  64  78 W3        30.10S
MARSHFIELD     SUNNY     73  64  73 W6        30.08S
STEVENS POINT  SUNNY     69  63  82 CALM      30.09F
WAUPACA        SUNNY     73  66  79 CALM      30.08S
WAUTOMA        SUNNY     70  65  84 CALM      30.08S
WISC RAPIDS    SUNNY     73  63  70 CALM      30.10R
CAMP DOUGLAS   SUNNY     66  66 100 SE2       30.08R
$$

WIZ011>013-019>022-031-037>040-048>050-261400-
NORTHEAST WISCONSIN

CITY           SKY/WX    TMP DP  RH WIND       PRES   REMARKS
ANTIGO         SUNNY     69  64  83 CALM      30.09F
SHAWANO        SUNNY     72  64  75 W3        30.07S
OCONTO         SUNNY     70  70  99 W5        30.04S
STURGEON BAY   SUNNY     73  65  75 W7        30.06R
GREEN BAY      SUNNY     70  67  90 CALM      30.06R
MANITOWOC      SUNNY     73  63  70 MISG      30.07R
APPLETON       MOSUNNY   70  63  78 CALM      30.06R
CLINTONVILLE   SUNNY     70  61  73 CALM      30.07S
OSHKOSH        SUNNY     71  65  81 S3        30.07S
$$

WIZ032>034-041-042-053>061-261400-
SOUTHWEST WISCONSIN

CITY           SKY/WX    TMP DP  RH WIND       PRES   REMARKS
LA CROSSE      MOSUNNY   71  68  90 SW6       30.08R
SPARTA         SUNNY     65  63  91 CALM      30.09S
VIROQUA        SUNNY     69  66  88 CALM      30.10S
BOSCOBEL       FOG       66  65  96 CALM      30.09S VSB 1/4
PRAIRIE DU CHI FOG       66  65  96 CALM      30.08S VSB<1/4
PLATTEVILLE    SUNNY     70  68  94 CALM      30.10S
$$

WIZ056-057-062-063-064-067-068-261400-
SOUTH CENTRAL WISCONSIN

CITY           SKY/WX    TMP DP  RH WIND       PRES   REMARKS
REEDSBURG      SUNNY     67  65  93 CALM      30.09R
BARABOO/DELLS  SUNNY     69  65  88 CALM      30.09S
LONE ROCK      FOG       65  64  97 CALM      30.09S VSB<1/4
MINERAL POINT  SUNNY     72  68  88 CALM      30.10S
MADISON        SUNNY     73  67  81 CALM      30.08S
MIDDLETON      SUNNY     72  71  96 CALM      30.10R
WATERTOWN      SUNNY     71  67  88 CALM      30.08S
MONROE         SUNNY     72  63  73 CALM      30.09S
JANESVILLE     SUNNY     72  70  94 CALM      30.08S
$$

WIZ051-052-058>065-066-070>072-261400-
SOUTHEAST WISCONSIN

CITY           SKY/WX    TMP DP  RH WIND       PRES   REMARKS
MILWAUKEE      MOSUNNY   78  64  61 CALM      30.07S HX  80
WAUKESHA       SUNNY     72  64  78 CALM      30.09S
MILWAUKEE/TIMM SUNNY     73  61  64 CALM      30.08S
RACINE         SUNNY     75  64  68 NW5       30.08F
BURLINGTON     SUNNY     71  66  82 CALM      30.08S
KENOSHA        SUNNY     74  65  73 W3        30.08S
FOND DU LAC    SUNNY     72  64  76 SW3       30.08S
SHEBOYGAN      SUNNY     73  66  78 NW5       30.07S
WEST BEND      SUNNY     72  63  73 NW3       30.08S
JUNEAU         SUNNY     68  65  89 CALM      30.10R
$$

LSZ147-162-261400-
LAKE SUPERIOR

STATION/POSITION TIME  TEMP    WIND        PRES    WAVE
                       AIR SEA DIR/SP/G            HT/PER
                 (UTC) (F)     (DEG/KT/KT) (MB)    (FT/S)
W MID LAKE BUOY  1250   62 60  280/  6/  8 1015.0R   1
DEVILS ISLAND    1300   70     190/  3/  4 1015.3F
SAXON HARBOR     1240   73      60/  2/  3 1015.9S
$$

LMZ867-665-643>646-261400-
LAKE MICHIGAN

STATION/POSITION TIME  TEMP    WIND        PRES    WAVE
                       AIR SEA DIR/SP/G            HT/PER
                 (UTC) (F)     (DEG/KT/KT) (MB)    (FT/S)
CHAMBERS ISLAND  1200   73     220/  3/  6 1016.9R
S GREEN BAY BUOY 1300   72 73  260/  6/  8   N/A
N MID LAKE BUOY  1250   70 69  230/  4/  4 1016.3R   1
NORTHPORT PIER   1200   74     240/  2/  4 1016.6R
SISTER BAY       1221   79        CALM       N/A
ALGOMA LAKESHORE 1213           CALM  /  3   N/A
KEWAUNEE LAKESHO 1200   68     290/  2/  4 1016.9R
SHEBOYGAN LAKESH 1300   74     300/  5/  6 1018.1R
PORT WASHINGTON  1200   74     300/  5/  9 1018.6R
ATWATER BUOY     1300   66 57  130/  2/  2 1019.8R
MILWAUKEE LAKESH 1210   74     250/  2/  2   N/A
S MID LAKE BUOY  1250   73 73  290/  4/  4 1017.3R
KENOSHA   LAKESH 1300   75     330/  2/  3 1017.9S
$$

TC  - TEMPERATURE IN CELSIUS
VSB - VISIBILITY IN STATUTE MILES
WCI - WIND CHILL INDEX
HX  - HEAT INDEX





USA.gov is the U.S. government's official web portal to all federal, state and local government web resources and services.